Time,TemperatureF,DewpointF,PressureIn,WindDirection,WindDirectionDegrees,WindSpeedMPH,WindSpeedGustMPH,Humidity,HourlyPrecipIn,Conditions,Clouds,dailyrainin,SoftwareType,DateUTC
2013-07-14 00:02:00,66.0,63.0,30.09,NE,51,0.0,0.0,91,0.00,,,0.00,,2013-07-14 05:02:00,
2013-07-14 00:23:00,67.0,65.0,30.09,ENE,65,0.0,1.0,92,0.00,,,0.00,,2013-07-14 05:23:00,
2013-07-14 00:32:00,67.0,65.0,30.09,ENE,68,0.0,1.0,92,0.00,,,0.00,,2013-07-14 05:32:00,
2013-07-14 00:43:00,66.0,63.0,30.09,ENE,69,0.0,1.0,91,0.00,,,0.00,,2013-07-14 05:43:00,
2013-07-14 00:53:00,66.0,63.0,30.09,ENE,69,0.0,1.0,91,0.00,,,0.00,,2013-07-14 05:53:00,
2013-07-14 01:01:00,66.0,63.0,30.09,ESE,103,0.0,0.0,91,0.00,,,0.00,,2013-07-14 06:01:00,
2013-07-14 01:11:00,66.0,64.0,30.09,East,82,0.0,1.0,92,0.00,,,0.00,,2013-07-14 06:11:00,
2013-07-14 01:22:00,66.0,64.0,30.09,East,82,0.0,1.0,92,0.00,,,0.00,,2013-07-14 06:22:00,
2013-07-14 01:32:00,66.0,64.0,30.08,East,89,0.0,1.0,92,0.00,,,0.00,,2013-07-14 06:32:00,
2013-07-14 01:42:00,66.0,64.0,30.08,ESE,110,0.0,1.0,93,0.00,,,0.00,,2013-07-14 06:42:00,
2013-07-14 01:53:00,66.0,64.0,30.08,ESE,110,0.0,1.0,93,0.00,,,0.00,,2013-07-14 06:53:00,
2013-07-14 02:02:00,66.0,64.0,30.09,East,87,0.0,1.0,93,0.00,,,0.00,,2013-07-14 07:02:00,
2013-07-14 02:12:00,66.0,64.0,30.08,ENE,64,0.0,2.0,93,0.00,,,0.00,,2013-07-14 07:12:00,
2013-07-14 02:22:00,66.0,64.0,30.08,ENE,64,0.0,2.0,93,0.00,,,0.00,,2013-07-14 07:22:00,
2013-07-14 02:33:00,66.0,64.0,30.09,ENE,60,0.0,1.0,92,0.00,,,0.00,,2013-07-14 07:33:00,
2013-07-14 02:43:00,66.0,64.0,30.09,ENE,60,0.0,1.0,92,0.00,,,0.00,,2013-07-14 07:43:00,
2013-07-14 02:53:00,66.0,64.0,30.09,ENE,60,0.0,1.0,92,0.00,,,0.00,,2013-07-14 07:53:00,
2013-07-14 03:01:00,65.0,63.0,30.09,ENE,60,0.0,0.0,92,0.00,,,0.00,,2013-07-14 08:01:00,
2013-07-14 03:22:00,65.0,63.0,30.09,ENE,60,0.0,0.0,93,0.00,,,0.00,,2013-07-14 08:22:00,
2013-07-14 03:32:00,64.0,62.0,30.09,ENE,60,0.0,0.0,93,0.00,,,0.00,,2013-07-14 08:32:00,
2013-07-14 03:42:00,64.0,62.0,30.10,ENE,60,0.0,0.0,93,0.00,,,0.00,,2013-07-14 08:42:00,
2013-07-14 03:53:00,64.0,62.0,30.10,ENE,60,0.0,0.0,93,0.00,,,0.00,,2013-07-14 08:53:00,
2013-07-14 04:01:00,64.0,62.0,30.10,ENE,60,0.0,0.0,94,0.00,,,0.00,,2013-07-14 09:01:00,
2013-07-14 04:11:00,63.0,61.0,30.11,ENE,60,0.0,0.0,94,0.00,,,0.00,,2013-07-14 09:11:00,
2013-07-14 04:22:00,63.0,61.0,30.11,ENE,60,0.0,0.0,94,0.00,,,0.00,,2013-07-14 09:22:00,
2013-07-14 04:32:00,63.0,61.0,30.11,ENE,60,0.0,1.0,94,0.00,,,0.00,,2013-07-14 09:32:00,
2013-07-14 04:42:00,63.0,62.0,30.11,ENE,60,0.0,0.0,95,0.00,,,0.00,,2013-07-14 09:42:00,
2013-07-14 04:53:00,63.0,62.0,30.11,ENE,60,0.0,0.0,95,0.00,,,0.00,,2013-07-14 09:53:00,
2013-07-14 05:01:00,63.0,61.0,30.11,ENE,60,0.0,0.0,94,0.00,,,0.00,,2013-07-14 10:01:00,
2013-07-14 05:11:00,63.0,62.0,30.11,ENE,60,0.0,0.0,95,0.00,,,0.00,,2013-07-14 10:11:00,
2013-07-14 05:22:00,63.0,62.0,30.11,ENE,60,0.0,0.0,95,0.00,,,0.00,,2013-07-14 10:22:00,
2013-07-14 05:32:00,63.0,62.0,30.12,ENE,60,0.0,0.0,95,0.00,,,0.00,,2013-07-14 10:32:00,
2013-07-14 05:42:00,63.0,62.0,30.12,ENE,60,0.0,0.0,95,0.00,,,0.00,,2013-07-14 10:42:00,
2013-07-14 05:53:00,62.0,61.0,30.12,ENE,60,0.0,0.0,95,0.00,,,0.00,,2013-07-14 10:53:00,
2013-07-14 06:02:00,62.0,61.0,30.11,ENE,60,0.0,0.0,95,0.00,,,0.00,,2013-07-14 11:02:00,
2013-07-14 06:11:00,62.0,61.0,30.12,ENE,60,0.0,0.0,96,0.00,,,0.00,,2013-07-14 11:11:00,
2013-07-14 06:22:00,62.0,61.0,30.12,ENE,60,0.0,0.0,96,0.00,,,0.00,,2013-07-14 11:22:00,
2013-07-14 06:32:00,63.0,62.0,30.13,ENE,60,0.0,0.0,97,0.00,,,0.00,,2013-07-14 11:32:00,
2013-07-14 06:43:00,63.0,62.0,30.13,ENE,60,0.0,0.0,97,0.00,,,0.00,,2013-07-14 11:43:00,
2013-07-14 06:53:00,64.0,63.0,30.13,ENE,60,0.0,1.0,97,0.00,,,0.00,,2013-07-14 11:53:00,
2013-07-14 07:02:00,65.0,64.0,30.13,ENE,60,0.0,0.0,97,0.00,,,0.00,,2013-07-14 12:02:00,
2013-07-14 07:11:00,67.0,66.0,30.12,ENE,60,0.0,1.0,95,0.00,,,0.00,,2013-07-14 12:11:00,
2013-07-14 07:22:00,67.0,66.0,30.12,ENE,60,0.0,1.0,95,0.00,,,0.00,,2013-07-14 12:22:00,
2013-07-14 07:33:00,69.0,67.0,30.12,East,80,0.0,1.0,93,0.00,,,0.00,,2013-07-14 12:33:00,
2013-07-14 07:43:00,69.0,67.0,30.12,East,80,0.0,1.0,93,0.00,,,0.00,,2013-07-14 12:43:00,
2013-07-14 07:53:00,71.0,68.0,30.12,SSE,153,1.0,5.0,90,0.00,,,0.00,,2013-07-14 12:53:00,
2013-07-14 08:01:00,72.0,68.0,30.12,SE,134,2.0,7.0,86,0.00,,,0.00,,2013-07-14 13:01:00,
2013-07-14 08:22:00,72.0,68.0,30.12,South,171,2.0,7.0,86,0.00,,,0.00,,2013-07-14 13:22:00,
2013-07-14 08:32:00,73.0,68.0,30.12,SE,137,3.0,8.0,85,0.00,,,0.00,,2013-07-14 13:32:00,
2013-07-14 08:42:00,73.0,68.0,30.12,SE,137,3.0,8.0,85,0.00,,,0.00,,2013-07-14 13:42:00,
2013-07-14 08:53:00,74.0,69.0,30.12,SSE,150,2.0,5.0,85,0.00,,,0.00,,2013-07-14 13:53:00,
2013-07-14 09:02:00,75.0,69.0,30.12,SE,136,1.0,7.0,83,0.00,,,0.00,,2013-07-14 14:02:00,
2013-07-14 09:11:00,75.0,69.0,30.12,SE,136,1.0,7.0,83,0.00,,,0.00,,2013-07-14 14:11:00,
2013-07-14 09:23:00,76.0,70.0,30.12,South,170,2.0,8.0,82,0.00,,,0.00,,2013-07-14 14:23:00,
2013-07-14 09:33:00,77.0,71.0,30.13,SE,142,4.0,7.0,81,0.00,,,0.00,,2013-07-14 14:33:00,
2013-07-14 09:43:00,77.0,71.0,30.13,SE,142,4.0,7.0,81,0.00,,,0.00,,2013-07-14 14:43:00,
2013-07-14 09:53:00,78.0,72.0,30.13,South,188,3.0,7.0,81,0.00,,,0.00,,2013-07-14 14:53:00,
2013-07-14 10:01:00,78.0,71.0,30.13,South,174,2.0,7.0,80,0.00,,,0.00,,2013-07-14 15:01:00,
2013-07-14 10:12:00,78.0,71.0,30.13,South,174,2.0,7.0,80,0.00,,,0.00,,2013-07-14 15:12:00,
2013-07-14 10:22:00,79.0,72.0,30.13,South,176,3.0,7.0,80,0.00,,,0.00,,2013-07-14 15:22:00,
2013-07-14 10:32:00,79.0,72.0,30.14,South,179,3.0,8.0,79,0.00,,,0.00,,2013-07-14 15:32:00,
2013-07-14 10:42:00,79.0,72.0,30.14,South,179,3.0,8.0,79,0.00,,,0.00,,2013-07-14 15:42:00,
2013-07-14 10:53:00,79.0,72.0,30.14,SSE,148,2.0,7.0,78,0.00,,,0.00,,2013-07-14 15:53:00,
2013-07-14 11:01:00,80.0,72.0,30.14,South,170,3.0,7.0,76,0.00,,,0.00,,2013-07-14 16:01:00,
2013-07-14 11:11:00,80.0,72.0,30.14,South,170,3.0,7.0,76,0.00,,,0.00,,2013-07-14 16:11:00,
2013-07-14 11:22:00,80.0,72.0,30.14,SSE,167,2.0,6.0,78,0.00,,,0.00,,2013-07-14 16:22:00,
2013-07-14 11:32:00,81.0,72.0,30.14,SSE,166,1.0,5.0,75,0.00,,,0.00,,2013-07-14 16:32:00,
2013-07-14 11:43:00,81.0,72.0,30.14,SSE,166,1.0,5.0,75,0.00,,,0.00,,2013-07-14 16:43:00,
2013-07-14 11:53:00,81.0,72.0,30.14,SSE,165,2.0,8.0,75,0.00,,,0.00,,2013-07-14 16:53:00,
2013-07-14 12:02:00,82.0,72.0,30.14,SSE,150,2.0,8.0,73,0.00,,,0.00,,2013-07-14 17:02:00,
2013-07-14 12:11:00,82.0,72.0,30.14,SSE,150,2.0,8.0,73,0.00,,,0.00,,2013-07-14 17:11:00,
2013-07-14 12:22:00,83.0,74.0,30.14,SSE,163,2.0,6.0,74,0.00,,,0.00,,2013-07-14 17:22:00,
2013-07-14 12:32:00,83.0,72.0,30.14,SSW,207,3.0,7.0,69,0.00,,,0.00,,2013-07-14 17:32:00,
2013-07-14 12:43:00,83.0,72.0,30.14,SSW,207,3.0,7.0,69,0.00,,,0.00,,2013-07-14 17:43:00,
2013-07-14 12:53:00,83.0,73.0,30.14,South,175,2.0,5.0,71,0.00,,,0.00,,2013-07-14 17:53:00,
2013-07-14 13:01:00,84.0,73.0,30.14,SSE,161,1.0,4.0,70,0.00,,,0.00,,2013-07-14 18:01:00,
2013-07-14 13:11:00,84.0,73.0,30.14,SSE,161,1.0,4.0,70,0.00,,,0.00,,2013-07-14 18:11:00,
2013-07-14 13:22:00,84.0,73.0,30.14,SSE,163,3.0,7.0,70,0.00,,,0.00,,2013-07-14 18:22:00,
2013-07-14 13:32:00,84.0,74.0,30.14,SSE,156,2.0,5.0,71,0.00,,,0.00,,2013-07-14 18:32:00,
2013-07-14 13:42:00,84.0,74.0,30.14,SSE,156,2.0,5.0,71,0.00,,,0.00,,2013-07-14 18:42:00,
2013-07-14 13:52:00,84.0,74.0,30.14,ESE,103,1.0,5.0,71,0.00,,,0.00,,2013-07-14 18:52:00,
2013-07-14 14:01:00,85.0,73.0,30.14,ESE,107,1.0,7.0,68,0.00,,,0.00,,2013-07-14 19:01:00,
2013-07-14 14:11:00,85.0,73.0,30.14,ESE,107,1.0,7.0,68,0.00,,,0.00,,2013-07-14 19:11:00,
2013-07-14 14:22:00,85.0,74.0,30.14,ESE,121,1.0,6.0,69,0.00,,,0.00,,2013-07-14 19:22:00,
2013-07-14 14:32:00,85.0,75.0,30.14,ESE,103,1.0,4.0,71,0.00,,,0.00,,2013-07-14 19:32:00,
2013-07-14 14:43:00,85.0,75.0,30.14,ESE,103,1.0,4.0,71,0.00,,,0.00,,2013-07-14 19:43:00,
2013-07-14 14:53:00,85.0,74.0,30.14,SSE,152,1.0,4.0,69,0.00,,,0.00,,2013-07-14 19:53:00,
2013-07-14 15:01:00,86.0,74.0,30.13,ENE,60,0.0,4.0,67,0.00,,,0.00,,2013-07-14 20:01:00,
2013-07-14 15:11:00,86.0,74.0,30.13,ENE,60,0.0,4.0,67,0.00,,,0.00,,2013-07-14 20:11:00,
2013-07-14 15:22:00,86.0,74.0,30.14,ENE,77,0.0,3.0,68,0.00,,,0.00,,2013-07-14 20:22:00,
2013-07-14 15:32:00,86.0,75.0,30.13,East,93,0.0,5.0,70,0.00,,,0.00,,2013-07-14 20:32:00,
2013-07-14 15:43:00,86.0,75.0,30.13,East,93,0.0,5.0,70,0.00,,,0.00,,2013-07-14 20:43:00,
2013-07-14 15:53:00,86.0,73.0,30.13,ENE,77,1.0,4.0,65,0.00,,,0.00,,2013-07-14 20:53:00,
2013-07-14 16:01:00,85.0,73.0,30.13,SSE,148,0.0,3.0,67,0.00,,,0.00,,2013-07-14 21:01:00,
2013-07-14 16:11:00,85.0,73.0,30.13,SSE,148,0.0,3.0,67,0.00,,,0.00,,2013-07-14 21:11:00,
2013-07-14 16:22:00,86.0,74.0,30.13,ESE,107,1.0,4.0,67,0.00,,,0.00,,2013-07-14 21:22:00,
2013-07-14 16:32:00,86.0,73.0,30.12,East,88,0.0,3.0,66,0.00,,,0.00,,2013-07-14 21:32:00,
2013-07-14 16:43:00,86.0,73.0,30.12,East,88,0.0,3.0,66,0.00,,,0.00,,2013-07-14 21:43:00,
2013-07-14 16:52:00,86.0,74.0,30.12,SE,145,0.0,5.0,68,0.00,,,0.00,,2013-07-14 21:52:00,
2013-07-14 17:01:00,86.0,75.0,30.12,East,95,0.0,5.0,69,0.00,,,0.00,,2013-07-14 22:01:00,
2013-07-14 17:11:00,86.0,75.0,30.12,East,95,0.0,5.0,69,0.00,,,0.00,,2013-07-14 22:11:00,
2013-07-14 17:22:00,86.0,73.0,30.11,ESE,107,0.0,3.0,66,0.00,,,0.00,,2013-07-14 22:22:00,
2013-07-14 17:32:00,86.0,73.0,30.12,ESE,117,0.0,4.0,66,0.00,,,0.00,,2013-07-14 22:32:00,
2013-07-14 17:42:00,86.0,73.0,30.12,ESE,117,0.0,4.0,66,0.00,,,0.00,,2013-07-14 22:42:00,
2013-07-14 17:53:00,86.0,73.0,30.11,ESE,109,0.0,2.0,66,0.00,,,0.00,,2013-07-14 22:53:00,
2013-07-14 18:01:00,84.0,73.0,30.11,East,84,0.0,2.0,69,0.00,,,0.00,,2013-07-14 23:01:00,
2013-07-14 18:11:00,84.0,73.0,30.11,East,84,0.0,2.0,69,0.00,,,0.00,,2013-07-14 23:11:00,
2013-07-14 18:22:00,85.0,73.0,30.11,East,85,0.0,3.0,67,0.00,,,0.00,,2013-07-14 23:22:00,
2013-07-14 18:32:00,84.0,72.0,30.12,SE,134,0.0,2.0,68,0.00,,,0.00,,2013-07-14 23:32:00,
2013-07-14 18:42:00,84.0,72.0,30.12,SE,134,0.0,2.0,68,0.00,,,0.00,,2013-07-14 23:42:00,
2013-07-14 18:53:00,83.0,73.0,30.12,ESE,109,0.0,0.0,71,0.00,,,0.00,,2013-07-14 23:53:00,
2013-07-14 19:02:00,83.0,75.0,30.12,South,184,0.0,0.0,76,0.00,,,0.00,,2013-07-15 00:02:00,
2013-07-14 19:11:00,83.0,75.0,30.12,South,184,0.0,0.0,76,0.00,,,0.00,,2013-07-15 00:11:00,
2013-07-14 19:22:00,83.0,74.0,30.12,ENE,67,0.0,2.0,75,0.00,,,0.00,,2013-07-15 00:22:00,
2013-07-14 19:32:00,83.0,73.0,30.13,NE,56,0.0,2.0,73,0.00,,,0.00,,2013-07-15 00:32:00,
2013-07-14 19:43:00,83.0,73.0,30.13,NE,56,0.0,2.0,73,0.00,,,0.00,,2013-07-15 00:43:00,
2013-07-14 19:53:00,83.0,73.0,30.13,NE,53,0.0,1.0,73,0.00,,,0.00,,2013-07-15 00:53:00,
2013-07-14 20:01:00,82.0,73.0,30.14,ENE,57,0.0,2.0,74,0.00,,,0.00,,2013-07-15 01:01:00,
2013-07-14 20:11:00,82.0,73.0,30.14,ENE,57,0.0,2.0,74,0.00,,,0.00,,2013-07-15 01:11:00,
2013-07-14 20:22:00,80.0,72.0,30.14,ENE,57,0.0,0.0,77,0.00,,,0.00,,2013-07-15 01:22:00,
2013-07-14 20:32:00,79.0,72.0,30.13,ENE,57,0.0,0.0,80,0.00,,,0.00,,2013-07-15 01:32:00,
2013-07-14 20:43:00,79.0,72.0,30.13,ENE,57,0.0,0.0,80,0.00,,,0.00,,2013-07-15 01:43:00,
2013-07-14 20:53:00,77.0,71.0,30.14,ENE,57,0.0,0.0,82,0.00,,,0.00,,2013-07-15 01:53:00,
2013-07-14 21:02:00,76.0,71.0,30.14,ENE,57,0.0,0.0,85,0.00,,,0.00,,2013-07-15 02:02:00,
2013-07-14 21:11:00,76.0,71.0,30.14,ENE,57,0.0,0.0,85,0.00,,,0.00,,2013-07-15 02:11:00,
2013-07-14 21:22:00,75.0,71.0,30.14,ENE,57,0.0,0.0,86,0.00,,,0.00,,2013-07-15 02:22:00,
2013-07-14 21:32:00,74.0,70.0,30.14,ENE,57,0.0,2.0,88,0.00,,,0.00,,2013-07-15 02:32:00,
2013-07-14 21:42:00,74.0,70.0,30.14,ENE,57,0.0,2.0,88,0.00,,,0.00,,2013-07-15 02:42:00,
2013-07-14 21:53:00,74.0,71.0,30.15,NE,56,0.0,1.0,89,0.00,,,0.00,,2013-07-15 02:53:00,
2013-07-14 22:02:00,74.0,71.0,30.15,ENE,65,0.0,1.0,89,0.00,,,0.00,,2013-07-15 03:02:00,
2013-07-14 22:11:00,74.0,71.0,30.15,ENE,65,0.0,1.0,89,0.00,,,0.00,,2013-07-15 03:11:00,
2013-07-14 22:22:00,74.0,71.0,30.16,ENE,65,0.0,0.0,90,0.00,,,0.00,,2013-07-15 03:22:00,
2013-07-14 22:32:00,73.0,70.0,30.16,ENE,65,0.0,0.0,90,0.00,,,0.00,,2013-07-15 03:32:00,
2013-07-14 22:43:00,73.0,70.0,30.16,ENE,65,0.0,0.0,90,0.00,,,0.00,,2013-07-15 03:43:00,
2013-07-14 22:53:00,73.0,70.0,30.16,ENE,65,0.0,0.0,91,0.00,,,0.00,,2013-07-15 03:53:00,
2013-07-14 23:01:00,72.0,69.0,30.16,ENE,65,0.0,0.0,91,0.00,,,0.00,,2013-07-15 04:01:00,
2013-07-14 23:11:00,72.0,69.0,30.16,ENE,65,0.0,0.0,91,0.00,,,0.00,,2013-07-15 04:11:00,
2013-07-14 23:22:00,72.0,70.0,30.16,ENE,65,0.0,0.0,92,0.00,,,0.00,,2013-07-15 04:22:00,
2013-07-14 23:32:00,72.0,70.0,30.15,ENE,65,0.0,0.0,93,0.00,,,0.00,,2013-07-15 04:32:00,
2013-07-14 23:42:00,72.0,70.0,30.15,ENE,65,0.0,0.0,93,0.00,,,0.00,,2013-07-15 04:42:00,
2013-07-14 23:54:00,72.0,70.0,30.15,ENE,65,0.0,0.0,93,0.00,,,0.00,,2013-07-15 04:54:00,